Flag for Moldova Weather past 2 weeks in Bălți, Moldova

Now
61 °F

Refreshingly cool.


Feels Like: 61 °F
Forecast: 44 / 75 °F
Wind: 7 mph from Southeast

Location: Baltsi-Leadoveni - The North of Moldova

Current Time: Sep 19, 2014 at 9:17:56 PM

Latest Report: Sep 19, 2014 at 9:00 PM


Visibility: N/A

Pressure: 30.21 "Hg

Humidity: 29%

Dew point: 28 °F

Location of BălțiLocation

Historic Weather in Bălți — Graph

°F

Bălți temperature yesterday

Maximum temperature yesterday: 70 °F (at 2:00 PM)
Minimum temperature yesterday: 50 °F (at 7:00 AM)
Average temperature yesterday: 60 °F

Past Weeks' High & Low Weather Summary

 TemperatureHumidityPressure
High82 °F (Sep 13, 1:30 PM)87% (Sep 16, 7:00 AM)30.30 "Hg (Sep 16, 7:00 AM)
Low46 °F (Sep 16, 7:00 AM)23% (Sep 19, 3:00 PM)29.92 "Hg (Sep 10, 4:00 PM)
Average67 °F47%30.11 "Hg
* Reported Sep 4 8:00 PM — Sep 19 8:00 PM, Bălți, Weather by CustomWeather, © 2014

Note: Actual official high and low records may vary slightly from our data, if they occured in-between our weather recording intervals... More about our weather records

Advertising

Bălți weather history for previous 24 hours

 ConditionsComfort  
Time TempWeatherWind HumidityBarometerVisibility
8:00 PM
Sep 19
63 °FMild.7 mph27%30.21 "HgN/A
7:30 PM63 °FMild.7 mph30%30.21 "HgN/A
7:00 PM64 °FMild.6 mph28%30.21 "HgN/A
6:30 PM66 °FMild.7 mph26%30.21 "HgN/A
6:00 PM68 °FMild.6 mph24%30.21 "HgN/A
5:30 PM68 °FMild.8 mph26%30.21 "HgN/A
5:00 PM70 °FMild.7 mph25%30.21 "HgN/A
4:30 PM70 °FMild.9 mph25%30.21 "HgN/A
4:00 PM70 °FMild.7 mph23%30.24 "HgN/A
3:30 PM70 °FMild.6 mph23%30.24 "HgN/A
3:00 PM70 °FMild.7 mph23%30.24 "HgN/A
2:30 PM70 °FMild.6 mph25%30.24 "HgN/A
2:00 PM68 °FMild.7 mph26%30.24 "HgN/A
1:30 PM68 °FMild.7 mph26%30.27 "HgN/A
1:00 PM68 °FPassing clouds.7 mph28%30.27 "HgN/A
12:30 PM66 °FPassing clouds.8 mph30%30.27 "HgN/A
12:00 PM66 °FPassing clouds.7 mph28%30.27 "HgN/A
11:30 AM64 °FPassing clouds.8 mph30%30.30 "HgN/A
11:00 AM64 °FPassing clouds.7 mph30%30.30 "HgN/A
10:30 AM63 °FMild.6 mph34%30.30 "HgN/A
10:00 AM61 °FRefreshingly cool.6 mph39%30.30 "HgN/A
9:30 AM59 °FRefreshingly cool.5 mph39%30.30 "HgN/A
9:00 AM55 °FRefreshingly cool.6 mph44%30.27 "HgN/A
8:30 AM54 °FCool.5 mph47%30.27 "HgN/A
8:00 AM52 °FCool.5 mph50%30.27 "HgN/A
7:00 AM48 °FCool.6 mph54%30.27 "HgN/A
6:30 AM48 °FCool.5 mph54%30.27 "HgN/A
6:00 AM50 °FCool.5 mph50%30.27 "HgN/A
5:30 AM50 °FCool.5 mph50%30.27 "HgN/A
5:00 AM50 °FCool.5 mph50%30.27 "HgN/A
4:30 AM50 °FCool.6 mph50%30.27 "HgN/A
4:00 AM50 °FCool.6 mph50%30.27 "HgN/A
3:30 AM52 °FCool.6 mph47%30.27 "HgN/A
3:00 AM52 °FCool.7 mph50%30.27 "HgN/A
2:30 AM52 °FCool.7 mph50%30.27 "HgN/A
2:00 AM54 °FCool.7 mph47%30.27 "HgN/A
1:30 AM54 °FCool.5 mph47%30.27 "HgN/A
1:00 AM54 °FCool.5 mph47%30.27 "HgN/A
12:30 AM54 °FCool.6 mph47%30.27 "HgN/A
12:00 AM55 °FRefreshingly cool.9 mph44%30.27 "HgN/A
11:30 PM
Sep 18
55 °FRefreshingly cool.9 mph44%30.27 "HgN/A
11:00 PM55 °FRefreshingly cool.9 mph44%30.27 "HgN/A
10:30 PM57 °FRefreshingly cool.9 mph41%30.27 "HgN/A
10:00 PM57 °FRefreshingly cool.9 mph41%30.27 "HgN/A
9:30 PM57 °FRefreshingly cool.10 mph41%30.27 "HgN/A
9:00 PM59 °FRefreshingly cool.10 mph39%30.27 "HgN/A
Weather by CustomWeather, © 2014

See weather overviewHow to use our weather pages